Regional Weather Roundup
Issued by NWS

Home | Current Version | Previous Version | Text Only | Print | Product List | Glossary On
Versions: 1 2 3 4 5 6 7 8 9 10 11 12 13 14 15 16 17 18 19 20 21 22 23 24 25 26 27 28 29 30 31 32 33 34 35 36 37 38 39 40 41 42 43 44 45 46 47 48 49 50
000
ASUS43 KDTX 300610
RWRMI
MICHIGAN HOURLY REGIONAL WEATHER ROUNDUP
NATIONAL WEATHER SERVICE DETROIT/PONTIAC MI
200 AM EDT THU JUL 30 2015

NOTE: "FAIR" INDICATES FEW OR NO CLOUDS BELOW 12,000 FEET WITH NO
SIGNIFICANT WEATHER AND/OR OBSTRUCTION TO VISIBILITY.

MIZ047>049-052>055-059>063-066>070-074>076-081>083-300700-
SOUTHEAST LOWER MICHIGAN

CITY           SKY/WX    TMP DP  RH WIND       PRES   REMARKS
ADRIAN         CLEAR     67  58  72 W3        29.97S
6HR MIN TEMP:  65; 6HR MAX TEMP:  81;

ALMA           CLEAR     65  58  78 SW5       29.93S
ANN ARBOR      CLEAR     63  57  81 W6        29.94F
BAD AXE        CLEAR     65  57  74 W6        29.89S
6HR MIN TEMP:  65; 6HR MAX TEMP:  79;

DETROIT CITY   CLEAR     70  58  65 W7        29.93S
6HR MIN TEMP:  70; 6HR MAX TEMP:  81;

DETROIT        PTCLDY    68  58  70 SW7       29.94S
6HR MIN TEMP:  68; 6HR MAX TEMP:  82;

FLINT          CLEAR     67  57  70 W7        29.92F
6HR MIN TEMP:  67; 6HR MAX TEMP:  83;

GROSSE ILE     CLEAR     70  61  73 W6        29.93S
HILLSDALE      CLEAR     68  57  67 W7        29.98F
6HR MIN TEMP:  67; 6HR MAX TEMP:  80;

HOWELL         CLEAR     65  57  74 W6        29.95S
6HR MIN TEMP:  65; 6HR MAX TEMP:  81;


CITY           SKY/WX    TMP DP  RH WIND       PRES   REMARKS
JACKSON        CLEAR     64  57  78 W6        29.96F
6HR MIN TEMP:  64; 6HR MAX TEMP:  78;

LAMBERTVILLE   CLEAR     67  61  78 CALM      29.97S
6HR MIN TEMP:  67; 6HR MAX TEMP:  82;

LANSING        CLEAR     68  57  68 W6        29.95S
6HR MIN TEMP:  68; 6HR MAX TEMP:  81;

LAPEER         NOT AVBL
MASON          CLEAR     65  56  72 CALM      29.95F
MONROE         CLEAR     66  60  80 W5        29.94S
MT. CLEMENS    CLEAR     67  59  75 SW7       29.90S
6HR MIN TEMP:  67; 6HR MAX TEMP:  80;

PONTIAC        CLEAR     69  57  65 W7        29.92F
6HR MIN TEMP:  68; 6HR MAX TEMP:  80;

PORT HOPE        N/A     69  60  73 SW7       29.85S
6HR MIN TEMP:  69; 6HR MAX TEMP:  81;

PORT HURON       N/A     59  59 100 CALM      29.90F FOG
TRI CITIES     CLEAR     69  56  62 W10       29.91S
6HR MIN TEMP:  67; 6HR MAX TEMP:  82;

YPSILANTI      CLEAR     66  59  78 SW7       29.95S
6HR MIN TEMP:  66; 6HR MAX TEMP:  84;

$$
MIZ043>046-050>051-056>058-064>065-071>073-077>080-300700-
SOUTHWEST LOWER MICHIGAN

CITY           SKY/WX    TMP DP  RH WIND       PRES   REMARKS
BATTLE CREEK   CLEAR     71  57  61 W9        29.97F
6HR MIN TEMP:  69; 6HR MAX TEMP:  80;

BENTON HARBOR  CLEAR     72  62  71 W12       29.99S
6HR MIN TEMP:  72; 6HR MAX TEMP:  79;

BIG RAPIDS     CLEAR     65  55  70 W5        29.92S
6HR MIN TEMP:  65; 6HR MAX TEMP:  78;

COLDWATER      CLEAR     63  56  78 CALM      29.98F
6HR MIN TEMP:  62; 6HR MAX TEMP:  78;

HOLLAND        CLEAR     74  60  61 W10       29.97S
6HR MIN TEMP:  73; 6HR MAX TEMP:  79;

GRAND RAPIDS   CLEAR     69  59  70 W9        29.95S
6HR MIN TEMP:  69; 6HR MAX TEMP:  82;

KALAMAZOO      CLEAR     69  57  65 W8        29.98S
6HR MIN TEMP:  68; 6HR MAX TEMP:  80;

MARSHALL       CLEAR     63  56  77 SW3       29.97S
MUSKEGON       CLEAR     74  54  49 W14G22    29.94S
6HR MIN TEMP:  73; 6HR MAX TEMP:  78;

$$
MIZ016>042-300700-
NORTHERN LOWER MICHIGAN

CITY           SKY/WX    TMP DP  RH WIND       PRES   REMARKS
ALPENA         CLEAR     69  55  60 SW3       29.83S
6HR MIN TEMP:  69; 6HR MAX TEMP:  84;

BEAVER ISLAND  CLOUDY    70  62  76 SW12G17   29.80F
6HR MIN TEMP:  70; 6HR MAX TEMP:  75;

BELLAIRE       CLOUDY    71  60  66 CALM      29.84F
6HR MIN TEMP:  71; 6HR MAX TEMP:  82;

CADILLAC       CLEAR     64  57  80 SW6       29.91S
CHARLEVOIX     CLOUDY    73  58  60 SW13      29.85F
6HR MIN TEMP:  71; 6HR MAX TEMP:  79;

FRANKFORT      PTCLDY    73  60  62 W10       29.88S
GRAYLING       CLEAR     64  55  72 CALM      29.88F
6HR MIN TEMP:  64; 6HR MAX TEMP:  80;

HARBOR SPRINGS MOCLDY    70  61  73 CALM      29.82F
HOUGHTON LAKE  CLEAR     70  58  65 W6        29.89F
6HR MIN TEMP:  70; 6HR MAX TEMP:  80;

MANISTEE       CLEAR     73  55  53 W13       29.90S
OSCODA         CLEAR     68  54  60 W7        29.85S
PELLSTON       PTCLDY    66  59  78 CALM      29.81F
6HR MIN TEMP:  66; 6HR MAX TEMP:  79;

TRAVERSE CITY  CLEAR     71  57  61 SW7       29.85S
6HR MIN TEMP:  71; 6HR MAX TEMP:  83;

$$
MIZ007>008-015-300700-
EASTERN UPPER MICHIGAN

CITY           SKY/WX    TMP DP  RH WIND       PRES   REMARKS
KINROSS        CLOUDY    68  55  64 SW3       29.77F
6HR MIN TEMP:  64; 6HR MAX TEMP:  70;

MACKINAC ISLAN CLOUDY    71  59  67 SW9G16    29.79F
$$
MIZ004>006-011>014-085-300700-
CENTRAL UPPER MICHIGAN

CITY           SKY/WX    TMP DP  RH WIND       PRES   REMARKS
MANISTIQUE     CLOUDY    68  61  77 SW3       29.78F
ESCANABA       PTCLDY    70  54  56 W10       29.81S
6HR MIN TEMP:  70; 6HR MAX TEMP:  79;

MENOMINEE      CLEAR     70  54  56 W6        29.86S
6HR MIN TEMP:  70; 6HR MAX TEMP:  79;

SAWYER-GWINN   PTCLDY    67  55  64 SW9       29.80F
6HR MIN TEMP:  67; 6HR MAX TEMP:  73;

$$
MIZ001>003-009>011-084-300700-
WESTERN UPPER MICHIGAN

CITY           SKY/WX    TMP DP  RH WIND       PRES   REMARKS
IRON MOUNTAIN  CLEAR     69  54  58 W7        29.84S
6HR MIN TEMP:  69; 6HR MAX TEMP:  77;

HOUGHTON       CLOUDY    68  53  58 W28G37    29.74R
6HR MIN TEMP:  68; 6HR MAX TEMP:  73;

COPPER HARBOR    N/A     70  53  54 NW10G25   29.69R
6HR MIN TEMP:  70; 6HR MAX TEMP:  75;

IRONWOOD       CLEAR     66  54  63 W13       29.84R
6HR MIN TEMP:  66; 6HR MAX TEMP:  72;

$$

ABBREVIATIONS USED IN REMARKS
   TC - TEMPERATURE IN CELSIUS
  WCI - WIND CHILL INDEX
   HX - HEAT INDEX
  VSB - VISIBILITY



USA.gov is the U.S. government's official web portal to all federal, state and local government web resources and services.